Location: Grasslands National Park East Block
(49.0708°N, 106.5295°W)
Time: 16:52:15
(UTC-06:00)

Tiros 1 - All Passes

Search period start: 17 September 2019 00:00
Search period end: 27 September 2019 00:00
Orbit: 631 x 664 km, 48.4° (Epoch: 17 September)

Date Brightness Start Highest point End Pass type
(mag) Time Alt. Az. Time Alt. Az. Time Alt. Az.
17 Sep - 15:04:50 10° SSW 15:08:58 31° SSE 15:13:05 10° E daylight
17 Sep - 16:46:07 10° WSW 16:50:48 72° SSE 16:55:26 10° E daylight
17 Sep - 18:28:17 10° W 18:32:58 80° S 18:37:36 10° ESE daylight
17 Sep - 20:10:33 10° W 20:14:55 41° SSW 20:19:15 10° SE visible
17 Sep - 21:54:29 10° WSW 21:56:13 12° SW 21:57:55 10° SSW visible
18 Sep - 13:50:24 10° S 13:53:21 16° SE 13:56:17 10° E daylight
18 Sep - 15:30:16 10° SW 15:34:49 50° SSE 15:39:20 10° E daylight
18 Sep - 17:12:09 10° W 17:16:52 83° S 17:21:32 10° E daylight
18 Sep - 18:54:23 10° W 18:59:00 64° SSW 19:03:35 10° ESE daylight
18 Sep - 20:36:56 10° W 20:40:41 24° SW 20:44:24 10° SSE visible
19 Sep - 14:14:55 10° SSW 14:19:00 29° SSE 14:23:03 10° E daylight
19 Sep - 15:56:06 10° WSW 16:00:48 70° SSE 16:05:26 10° E daylight
19 Sep - 17:38:15 10° W 17:42:58 81° S 17:47:36 10° E daylight
19 Sep - 19:20:31 10° W 19:24:56 43° SSW 19:29:18 10° SE daylight
19 Sep - 21:04:11 10° WSW 21:06:16 13° SW 21:08:21 10° SSW visible
20 Sep - 13:00:38 10° S 13:03:23 15° SE 13:06:08 10° ESE daylight
20 Sep - 14:40:17 10° SW 14:44:50 48° SSE 14:49:20 10° E daylight
20 Sep - 16:22:08 10° W 16:26:51 83° S 16:31:32 10° E daylight
20 Sep - 18:04:22 10° W 18:09:00 66° SSW 18:13:36 10° ESE daylight
20 Sep - 19:46:52 10° W 19:50:43 26° SW 19:54:32 10° SSE visible
21 Sep - 13:25:00 10° SSW 13:29:01 28° SSE 13:33:01 10° E daylight
21 Sep - 15:06:05 10° WSW 15:10:47 68° SSE 15:15:26 10° E daylight
21 Sep - 16:48:14 10° W 16:52:57 82° S 16:57:36 10° E daylight
21 Sep - 18:30:30 10° W 18:34:57 45° SSW 18:39:22 10° SE daylight
21 Sep - 20:13:56 10° WSW 20:16:19 14° SW 20:18:42 10° SSW visible
22 Sep - 12:10:52 10° S 12:13:26 14° SE 12:15:59 10° ESE daylight
22 Sep - 13:50:18 10° SW 13:54:50 46° SSE 13:59:19 10° E daylight
22 Sep - 15:32:06 10° W 15:36:51 82° S 15:41:32 10° E daylight
22 Sep - 17:14:20 10° W 17:19:00 68° SSW 17:23:37 10° ESE daylight
22 Sep - 18:56:48 10° W 19:00:45 27° SW 19:04:39 10° SSE daylight
23 Sep - 12:35:05 10° SSW 12:39:03 26° SE 12:42:59 10° E daylight
23 Sep - 14:16:04 10° WSW 14:20:47 66° SSE 14:25:26 10° E daylight
23 Sep - 15:58:12 10° W 16:02:56 83° S 16:07:37 10° E daylight
23 Sep - 17:40:28 10° W 17:44:58 47° SSW 17:49:25 10° SE daylight
23 Sep - 19:23:44 10° WSW 19:26:22 15° SW 19:29:00 10° S daylight
24 Sep - 11:21:09 10° SSE 11:23:28 14° SE 11:25:46 10° ESE daylight
24 Sep - 13:00:20 10° SW 13:04:50 44° SSE 13:09:19 10° E daylight
24 Sep - 14:42:05 10° W 14:46:50 81° S 14:51:32 10° E daylight
24 Sep - 16:24:19 10° W 16:29:00 70° SSW 16:33:38 10° ESE daylight
24 Sep - 18:06:45 10° W 18:10:47 29° SSW 18:14:46 10° SSE daylight
25 Sep - 11:45:11 10° SSW 11:49:04 25° SE 11:52:56 10° E daylight
25 Sep - 13:26:04 10° WSW 13:30:46 64° SSE 13:35:26 10° E daylight
25 Sep - 15:08:11 10° W 15:12:56 83° S 15:17:37 10° E daylight
25 Sep - 16:50:26 10° W 16:54:58 50° SSW 16:59:28 10° SE daylight
25 Sep - 18:33:33 10° W 18:36:25 16° SW 18:39:16 10° S daylight
26 Sep - 10:31:29 10° SSE 10:33:30 13° SE 10:35:32 10° ESE daylight
26 Sep - 12:10:22 10° SW 12:14:50 42° SSE 12:19:18 10° E daylight
26 Sep - 13:52:03 10° W 13:56:49 80° S 14:01:32 10° E daylight
26 Sep - 15:34:17 10° W 15:39:00 72° SSW 15:43:39 10° ESE daylight
26 Sep - 17:16:41 10° W 17:20:48 31° SSW 17:24:53 10° SSE daylight
